User: anonymous   Login
Location: Unspecified
(0.0000°N, 0.0000°E)
Time: 21:46:50
(UTC+00:00)
Language:

OBJECT G - Orbit

View from above orbital plane
View from above orbital plane
View from above satellite
View from above satellite

Ground track
Ground track

The orbit data is extracted from the following two-line orbital elements,

1 43677U 18084G   19047.27734553  .00000534  00000-0  60948-4 0  9998
2 43677  97.8381 161.9127 0015338 331.4459  28.5958 14.90126535 16382
Epoch (UTC): 16 February 2019 06:39:22
Eccentricity: 0.0015338
inclination: 97.8381°
perigee height: 587 km
apogee height: 608 km
right ascension of ascending node: 161.9127°
argument of perigee: 331.4459°
revolutions per day: 14.90126535
mean anomaly at epoch: 28.5958°
orbit number at epoch: 1638

The dashed part of the orbit path shows where the satellite is in the earth's shadow,  

DLR